Theta_e
303 308 309 308 305 299 299 303 314 314 316 315 308 310 311 308 308 309 310 310 311 309 311 310 310 310 308 306 307 310 311 311 314 316 314 313 312 311 305 306 311 297 302 303
301 306 308 308 305 296 297 307 307 314 315 313 309 306 308 307 309 308 309 310 309 307 309 309 308 305 306 306 309 312 310 312 314 313 313 312 315 311 309 302 299 302 299 301
301 304 307 308 305 294 299 304 307 305 307 308 305 307 307 307 306 308 308 309 306 306 308 306 307 306 306 306 308 312 311 311 310 310 312 311 313 311 310 306 300 303 298 307
300 304 306 308 305 294 301 301 308 304 308 307 306 306 307 306 307 307 307 308 309 307 309 308 307 307 307 307 308 310 310 312 311 310 310 309 309 309 308 307 305 306 309 313
299 304 306 307 305 294 301 302 309 306 305 307 306 305 306 306 310 308 309 307 306 307 308 308 309 308 305 305 306 314 311 314 311 312 310 310 310 309 309 310 311 312 311 313
298 302 305 306 305 295 300 302 307 307 306 305 306 305 307 308 307 307 306 304 303 304 303 304 305 306 306 307 307 313 310 312 312 317 311 310 312 312 308 309 309 312 312 312
298 300 304 306 306 296 302 305 306 306 307 306 306 309 308 308 308 307 307 305 302 304 300 302 301 303 306 307 307 308 311 310 310 317 315 312 312 311 309 310 310 308 309 309
297 298 303 305 306 302 297 301 302 304 306 306 307 307 306 306 305 307 307 306 303 301 304 304 300 301 302 303 307 310 311 309 312 314 312 312 314 311 311 310 310 308 309 309
295 298 302 304 306 303 296 297 299 301 303 305 306 304 304 304 304 305 307 305 305 300 298 299 301 303 303 306 306 308 309 309 310 305 308 304 305 310 308 308 306 306 310 311
295 299 302 304 306 303 295 296 300 304 302 302 303 304 303 301 301 303 304 306 306 298 298 301 302 304 305 307 311 308 307 305 306 299 311 308 311 310 308 311 306 307 310 311
297 299 303 304 306 301 294 298 301 305 300 302 304 305 301 300 301 304 303 302 301 298 299 301 301 303 304 308 309 308 308 309 309 304 303 303 309 311 310 305 309 310 311 311
295 298 302 305 306 298 295 300 304 306 302 303 305 306 305 304 302 299 300 300 299 297 298 299 301 304 300 304 308 309 310 308 310 308 307 305 307 309 309 310 311 311 311 312
295 298 303 306 305 295 295 302 304 305 302 304 304 305 307 306 305 305 302 300 301 300 298 298 299 303 299 303 308 309 309 307 309 306 311 310 311 311 311 310 310 310 310 310
296 299 303 306 304 293 295 301 304 304 303 305 305 306 305 305 306 306 305 302 302 299 298 298 299 303 300 307 308 307 307 307 309 310 311 311 311 310 309 309 308 308 309 304
296 300 304 305 300 293 297 303 305 305 305 304 304 304 305 304 305 305 305 303 299 299 301 301 301 299 303 305 306 308 306 308 304 313 309 309 308 307 307 308 308 308 303 303
297 301 304 305 294 295 302 301 306 307 308 303 305 303 304 305 305 305 304 303 298 298 300 299 300 301 302 308 310 308 305 305 306 310 307 305 306 307 308 306 305 305 305 305
299 302 305 299 293 301 302 302 307 308 308 303 304 304 304 305 305 303 302 302 298 299 299 300 300 301 302 306 311 307 306 306 305 306 306 310 309 309 307 307 306 305 304 304
302 305 301 293 298 304 304 306 306 306 305 302 303 304 305 305 303 304 300 301 300 299 299 300 301 300 301 304 306 305 305 306 308 308 308 308 307 305 305 306 307 305 305 304
304 301 294 302 304 303 306 306 306 306 305 301 302 304 305 303 302 301 301 300 302 299 301 302 301 301 301 304 305 306 306 307 306 307 306 306 305 304 304 304 304 304 304 303
298 299 303 297 305 306 306 307 302 300 299 300 302 299 305 303 301 302 302 299 300 304 302 299 301 302 303 302 301 301 301 303 305 308 308 305 302 301 301 301 302 304 302 300
303 299 298 302 306 306 297 295 299 296 303 301 300 301 303 301 304 302 300 300 300 305 303 302 300 302 304 301 301 301 303 306 306 305 304 303 301 300 300 300 301 301 299 298
305 304 304 303 299 295 298 296 299 301 304 301 303 303 302 300 298 302 299 303 302 307 298 300 301 300 302 301 302 301 303 304 303 303 302 301 301 301 300 299 299 300 300 298
307 305 298 299 292 294 302 301 303 301 301 301 302 302 299 298 298 298 301 306 303 299 300 302 298 301 303 301 301 300 302 302 301 301 301 301 301 301 300 299 299 299 298 298
299 296 297 297 295 296 300 302 301 300 301 306 299 298 300 297 300 299 306 302 302 304 303 302 298 304 303 301 301 300 299 300 300 300 300 300 300 300 300 300 300 299 299 299
299 298 298 299 299 300 299 298 301 302 304 300 299 298 299 300 301 300 302 304 306 305 302 296 301 303 302 302 301 300 299 299 300 301 301 302 301 301 301 300 300 299 299 298
302 302 303 301 303 302 302 303 305 304 297 296 296 297 300 302 301 302 302 304 303 301 298 298 302 302 302 301 301 301 302 302 302 302 302 302 302 301 301 302 301 301 300 300
304 303 301 302 302 301 301 304 305 298 298 298 297 299 300 298 300 301 299 301 299 296 300 302 303 303 302 301 302 303 303 304 304 304 304 303 303 303 302 301 301 300 301 299
Wind_Speed
10 5 8 8 10 11 7 2 1 2 4 3 1 3 4 1 3 5 4 4 4 2 3 4 3 2 1 1 1 3 1 4 3 1 1 3 3 3 4 4 4 1 3 4
10 4 6 7 9 7 6 1 2 2 1 3 1 3 2 3 3 5 4 3 4 5 4 4 2 2 1 2 1 4 4 2 3 5 3 2 3 2 2 4 3 2 4 4
10 8 6 6 7 5 3 1 1 3 3 0 5 4 2 3 3 4 3 4 3 4 4 6 4 2 1 2 3 6 6 3 2 5 3 3 4 3 2 2 3 4 2 1
12 10 9 7 6 4 2 1 3 2 3 3 3 3 3 3 3 4 6 4 4 3 3 3 3 3 2 4 3 4 4 4 3 6 6 7 4 5 4 4 3 4 3 3
14 8 8 9 5 4 2 2 0 3 1 2 6 2 1 3 4 6 3 6 5 4 5 1 4 5 5 3 4 3 3 4 2 6 6 10 13 9 7 7 5 6 5 4
15 10 7 10 6 7 2 2 2 3 3 3 5 4 4 4 8 9 6 8 11 16 4 11 11 12 8 5 3 2 3 5 2 3 4 3 9 7 6 3 4 2 6 2
15 13 8 12 10 12 2 3 2 2 2 3 3 3 4 5 1 9 1 4 7 3 6 6 5 9 13 17 12 4 4 3 3 3 2 3 1 4 1 2 3 5 3 5
16 16 11 14 12 11 16 4 5 3 1 3 5 6 9 9 8 5 4 6 2 9 4 5 6 5 6 7 13 15 6 4 4 3 3 2 1 1 1 2 2 1 3 6
19 16 14 16 13 10 15 11 6 1 2 2 4 5 4 6 4 4 3 5 4 6 4 4 3 2 3 5 5 9 8 8 3 2 4 4 4 0 2 1 3 4 3 7
18 15 15 17 14 11 14 6 11 3 3 2 1 3 5 5 4 4 1 2 3 4 3 4 2 2 2 4 3 5 3 3 3 2 4 2 1 2 2 1 4 5 4 6
16 15 13 16 14 12 15 4 14 4 2 2 0 2 5 3 3 5 5 4 3 3 4 3 1 3 1 3 3 2 3 3 3 3 4 1 1 1 1 5 4 4 6 4
19 18 14 17 14 14 15 7 7 13 3 3 5 10 5 1 8 6 2 4 3 4 5 2 4 3 2 2 2 2 2 1 1 1 2 3 3 3 1 2 3 4 6 10
21 19 17 18 16 17 18 7 10 9 3 4 5 4 7 6 4 7 5 2 4 2 3 4 3 5 2 2 2 1 1 1 1 3 2 2 2 3 4 4 5 7 7 9
19 20 20 20 17 17 19 12 6 2 6 4 3 11 5 8 4 5 5 16 10 9 4 4 3 4 2 2 2 2 1 2 0 2 2 2 4 6 10 11 7 5 7 5
22 22 23 20 16 17 16 13 7 7 4 4 1 2 15 9 17 24 26 26 6 3 3 4 2 3 3 2 2 1 1 2 2 2 1 0 5 8 13 4 3 5 6 7
24 26 23 19 17 18 10 2 3 10 13 4 3 1 7 15 28 27 19 10 4 3 4 3 2 1 3 3 2 2 2 2 4 1 1 2 7 6 15 7 8 14 15 13
27 27 23 19 20 23 5 4 15 16 11 4 3 2 3 5 7 5 7 10 3 4 3 3 3 1 3 2 2 5 4 2 4 4 3 0 9 4 11 13 15 17 17 17
30 25 20 19 22 13 7 9 17 11 11 6 4 1 2 2 2 3 4 3 3 5 3 2 2 2 1 2 4 5 3 2 5 4 7 5 6 11 13 13 13 13 10 13
30 23 18 14 10 6 8 18 10 9 5 4 3 5 4 2 2 2 3 2 4 2 3 1 2 1 0 2 8 7 5 4 5 5 8 7 7 6 8 9 12 8 9 11
29 30 7 1 7 23 20 2 3 4 3 3 3 1 4 4 0 2 3 3 2 3 1 2 3 1 1 2 3 6 5 4 5 5 3 3 5 5 5 6 9 9 10 14
18 6 2 11 29 8 5 2 3 1 2 1 3 3 5 1 4 3 0 3 1 3 3 3 0 1 3 6 4 3 5 9 11 13 10 9 8 6 6 9 13 16 18 17
19 17 18 10 4 3 5 1 1 2 6 2 5 5 4 1 3 4 1 3 1 3 4 3 2 3 6 7 6 6 16 19 16 16 15 14 14 14 15 15 16 16 15 16
27 7 4 4 2 5 8 7 3 3 4 4 5 4 4 2 3 4 3 3 1 3 2 3 4 6 10 8 7 7 17 21 20 18 19 18 17 17 20 20 19 19 18 15
4 5 4 5 3 6 5 5 5 4 6 13 5 3 3 2 4 3 4 0 4 2 1 5 4 13 13 9 12 13 10 21 22 21 21 21 20 18 17 16 15 16 16 15
3 4 6 5 2 2 3 4 4 4 12 8 5 4 3 2 4 2 4 4 4 5 5 3 9 15 13 12 11 15 16 19 19 20 19 20 19 18 15 14 14 14 14 16
3 4 4 1 4 1 2 5 11 10 5 4 4 4 4 2 5 4 5 8 7 4 3 5 12 15 14 12 18 20 24 21 20 19 19 20 20 20 17 13 12 12 13 14
3 2 2 2 3 4 4 8 11 10 3 3 4 4 3 4 3 3 4 5 3 4 6 9 15 16 14 19 22 25 22 19 16 14 19 21 20 20 16 14 11 10 9 10
Wind_Direction
323 247 261 282 317 331 322 16 31 11 156 72 43 170 202 317 355 22 35 89 67 98 79 76 79 108 41 286 241 100 77 113 87 161 255 80 82 125 136 124 222 75 127 273
305 292 261 280 316 334 320 54 267 22 18 139 246 266 73 69 33 37 23 52 49 47 85 91 104 121 221 11 80 147 168 81 92 353 345 59 78 98 125 128 89 197 119 253
307 294 256 266 305 311 312 69 63 328 51 210 152 138 118 96 38 65 40 42 73 76 50 26 139 114 79 79 76 80 85 77 147 184 161 124 113 39 193 55 99 169 203 359
313 292 240 251 291 276 277 84 246 212 202 266 159 89 126 122 48 20 33 56 39 143 116 63 81 58 92 52 9 55 89 92 79 51 68 86 88 67 87 87 142 103 191 100
311 297 243 234 262 232 250 186 60 356 294 94 110 57 121 123 147 15 19 88 24 62 95 132 159 133 31 50 344 81 23 117 21 53 60 87 68 33 59 50 41 63 73 38
310 291 249 232 243 212 249 293 295 106 299 116 109 197 160 146 126 16 71 117 82 79 66 102 97 97 86 65 51 72 70 130 86 104 197 48 53 18 27 65 53 54 66 314
309 295 248 237 230 222 267 343 354 68 258 99 154 123 91 116 60 132 28 66 103 166 137 116 68 61 61 46 29 12 105 84 63 119 1 51 251 316 32 71 69 23 23 315
302 287 246 237 231 241 234 277 34 39 98 106 65 76 109 89 59 64 76 13 49 143 60 57 39 4 23 7 31 29 50 88 86 115 74 148 58 351 15 12 338 278 314 335
293 281 247 233 228 241 233 256 256 203 135 273 111 97 111 121 114 35 56 48 79 67 72 60 75 56 324 11 9 57 40 59 79 56 98 162 236 184 181 283 356 300 339 354
290 273 245 231 222 236 226 243 210 180 116 272 159 125 165 121 89 101 14 150 57 52 68 68 89 66 63 48 17 348 16 8 76 22 91 3 141 247 156 75 232 318 343 337
282 265 245 227 217 228 215 247 221 212 121 320 341 102 129 102 103 143 189 72 350 56 72 105 127 92 93 97 32 27 40 33 33 22 76 323 245 319 203 222 294 317 328 325
267 260 234 224 214 221 211 266 214 196 100 145 86 74 66 215 165 133 54 162 149 165 95 89 114 85 60 126 105 3 79 52 75 95 163 234 273 269 25 303 284 299 311 317
254 247 225 216 215 215 207 248 158 169 98 51 54 355 17 72 122 146 114 282 145 100 155 140 126 96 129 105 98 151 104 89 103 53 43 326 289 340 330 337 290 308 300 297
250 231 220 212 219 214 215 225 198 185 104 97 322 26 22 344 187 161 126 126 95 115 78 85 97 114 178 109 117 79 347 350 38 57 6 338 71 359 325 315 312 314 349 23
246 223 211 214 215 210 215 220 246 219 126 141 142 341 25 84 116 108 114 107 93 69 65 67 100 136 116 70 138 77 280 163 111 94 32 150 284 319 316 334 30 44 69 54
228 215 210 211 203 200 184 289 203 172 139 101 76 294 9 73 93 81 71 67 69 72 98 106 99 144 98 107 86 170 219 214 202 179 20 258 274 315 25 43 56 59 56 44
208 208 204 203 195 185 217 195 141 142 120 90 85 37 326 8 54 45 50 43 64 85 103 69 116 93 78 97 130 176 188 245 279 251 234 325 30 25 26 47 55 65 63 58
202 194 195 193 195 193 273 143 144 136 94 75 107 136 35 38 52 64 15 62 39 21 117 75 86 7 31 108 141 143 174 194 86 70 73 94 82 52 40 54 56 50 39 35
187 178 169 126 176 221 149 133 104 98 99 121 105 139 180 91 70 86 41 65 58 286 82 51 86 332 66 198 152 164 173 145 135 151 82 64 63 56 41 47 41 53 37 29
163 149 170 184 190 139 141 198 34 30 352 58 107 178 135 113 92 60 98 32 134 84 253 100 68 223 287 157 141 130 150 168 191 115 105 63 55 58 48 49 61 67 61 57
154 160 138 134 133 128 36 63 103 305 64 62 151 154 126 278 117 145 194 147 148 102 213 121 222 241 202 165 147 169 175 128 101 109 100 97 112 109 88 71 77 82 75 67
170 123 120 124 75 50 103 195 2 169 187 178 133 152 136 142 119 103 18 107 85 139 153 93 205 223 154 154 149 123 125 116 110 116 113 108 102 102 94 88 86 84 88 81
137 114 84 107 324 51 161 179 218 149 180 179 143 116 128 93 64 70 96 84 129 113 68 220 220 160 151 152 129 117 122 122 118 113 112 107 102 104 100 98 94 91 85 77
104 118 98 155 198 226 187 171 155 194 138 142 117 86 116 131 69 125 93 114 126 92 178 230 176 164 153 147 135 126 132 129 127 125 119 111 105 100 100 97 92 87 79 74
103 112 177 195 181 63 137 124 105 146 133 130 99 69 90 58 103 74 116 141 203 200 224 208 158 155 149 142 141 139 141 141 138 139 131 123 116 109 104 100 94 86 79 69
78 86 98 107 86 52 94 122 129 140 133 95 66 110 92 117 128 144 195 155 206 223 193 148 143 147 144 144 147 151 154 153 154 155 144 139 134 127 121 110 91 80 75 68
67 41 60 119 76 121 134 141 140 141 91 122 123 108 155 112 103 187 189 202 206 156 133 142 147 146 146 146 148 154 158 153 151 142 149 153 147 137 127 103 91 87 88 78